period_start,C,m1,H,J0,J1,J2,J3,J4,J5,JA,JB,JC,JD,JJ,JK,JN,#
2018-03-02 00:02:14,0.17,1.72,0.00,19.79,23.30,26.60,14.13,48.11,1013.69,2041.94,2804.96,2660.92,3029.51,599.81,600.67,32.99,0000 0000 0000 0000 000000
2018-03-02 00:07:15,0.18,1.73,0.00,19.78,23.29,26.58,14.06,48.04,1013.69,2041.96,2801.83,2658.81,3026.96,599.83,600.75,33.04,0000 0000 0000 0000 000000
2018-03-02 00:12:17,0.18,1.74,0.00,19.79,23.29,26.57,14.07,48.07,1013.69,2041.95,2798.68,2656.68,3024.31,600.30,601.12,33.09,0000 0000 0000 0000 000000
2018-03-02 00:17:18,0.18,1.75,0.00,19.80,23.29,26.58,14.12,47.94,1013.68,2041.94,2795.48,2654.44,3021.69,600.02,600.85,33.14,0000 0000 0000 0000 000000
2018-03-02 00:22:19,0.18,1.76,0.00,19.81,23.29,26.56,14.25,47.98,1013.50,2041.96,2792.42,2652.31,3019.17,600.05,600.71,33.19,0000 0000 0000 0000 000000
2018-03-02 00:27:20,0.18,1.77,0.00,19.81,23.29,26.57,14.11,48.03,1013.49,2041.97,2789.37,2650.25,3016.60,600.02,600.70,33.24,0000 0000 0000 0000 000000
2018-03-02 00:32:22,0.17,1.78,0.00,19.81,23.29,26.56,14.03,48.09,1013.39,2041.97,2786.35,2648.20,3014.15,599.83,600.36,33.29,0000 0000 0000 0000 000000
2018-03-02 00:37:23,0.18,1.79,0.00,19.83,23.29,26.57,14.14,48.15,1013.47,2041.97,2783.32,2646.14,3011.58,600.51,601.14,33.34,0000 0000 0000 0000 000000
2018-03-02 00:42:25,0.18,1.80,0.00,19.84,23.29,26.56,14.07,48.13,1013.26,2041.97,2780.14,2644.02,3009.02,600.19,600.60,33.39,0000 0000 0000 0000 000000
2018-03-02 00:47:26,0.16,1.81,0.00,19.85,23.29,26.56,14.08,48.17,1013.25,2041.98,2777.30,2642.12,3006.80,600.12,600.58,33.44,0000 0000 0000 0000 000000
2018-03-02 00:52:27,0.17,1.81,0.00,19.85,23.29,26.56,14.09,48.10,1013.28,2041.96,2774.29,2640.08,3004.36,600.04,600.51,33.49,0000 0000 0000 0000 000000
2018-03-02 00:57:28,0.18,1.82,0.00,19.87,23.29,26.55,14.06,48.13,1013.28,2041.98,2771.28,2638.09,3001.90,599.97,600.44,33.55,0000 0000 0000 0000 000000
2018-03-02 01:02:29,0.17,1.83,0.00,19.85,23.29,26.55,14.03,48.14,1013.27,2041.95,2768.22,2635.97,2999.33,599.90,600.23,33.60,0000 0000 0000 0000 000000
2018-03-02 01:07:30,0.18,1.84,0.00,19.87,23.29,26.55,14.06,48.08,1013.24,2041.96,2765.16,2633.93,2996.79,600.03,600.44,33.65,0000 0000 0000 0000 000000
2018-03-02 01:12:32,0.18,1.85,0.00,19.89,23.29,26.55,13.99,48.23,1013.21,2041.98,2761.93,2631.74,2994.13,599.49,599.88,33.70,0000 0000 0000 0000 000000
2018-03-02 01:17:33,0.21,1.86,0.00,19.89,23.29,26.55,14.08,48.18,1013.20,2041.98,2758.47,2629.35,2991.25,599.72,599.98,33.75,0000 0000 0000 0000 000000
2018-03-02 01:22:34,0.20,1.87,0.00,19.90,23.29,26.53,14.04,48.15,1013.20,2041.96,2755.08,2626.98,2988.38,600.16,600.50,33.80,0000 0000 0000 0000 000000
2018-03-02 01:27:36,0.19,1.88,0.00,19.91,23.29,26.53,13.99,48.17,1013.15,2041.97,2751.86,2624.68,2985.62,599.85,600.15,33.85,0000 0000 0000 0000 000000
2018-03-02 01:32:37,0.19,1.89,0.00,19.91,23.29,26.54,14.06,48.13,1012.92,2041.98,2748.74,2622.56,2982.88,600.03,600.13,33.90,0000 0000 0000 0000 000000
2018-03-02 01:37:39,0.21,1.90,0.00,19.93,23.29,26.55,14.08,48.03,1012.75,2041.98,2745.29,2620.24,2979.98,600.38,600.31,33.95,0000 0000 0000 0000 000000
2018-03-02 01:42:40,0.18,1.91,0.00,19.93,23.29,26.55,14.02,47.98,1012.72,2041.98,2742.09,2618.05,2977.34,600.12,600.08,34.00,0000 0000 0000 0000 000000
2018-03-02 01:47:42,0.19,1.92,0.00,19.95,23.29,26.56,13.98,47.84,1012.75,2041.98,2738.79,2615.75,2974.59,599.86,599.78,34.05,0000 0000 0000 0000 000000
2018-03-02 01:52:43,0.20,1.93,0.00,19.96,23.29,26.56,14.05,47.96,1012.77,2041.96,2735.41,2613.40,2971.70,599.86,599.78,34.10,0000 0000 0000 0000 000000
2018-03-02 01:57:44,0.21,1.94,0.00,19.97,23.29,26.57,14.07,47.99,1012.79,2041.97,2731.90,2611.01,2968.79,600.02,599.90,34.15,0000 0000 0000 0000 000000
2018-03-02 02:02:46,0.21,1.95,0.00,19.99,23.29,26.57,14.09,47.91,1012.78,2041.98,2728.26,2608.48,2965.82,600.07,599.95,34.20,0000 0000 0000 0000 000000
2018-03-02 02:07:47,0.22,1.96,0.00,20.00,23.29,26.55,14.12,47.97,1012.75,2041.98,2724.71,2605.97,2962.77,600.08,599.91,34.25,0000 0000 0000 0000 000000
2018-03-02 02:12:48,0.22,1.97,0.00,20.00,23.30,26.54,14.11,48.16,1012.72,2041.98,2720.98,2603.34,2959.69,600.17,600.16,34.30,0000 0000 0000 0000 000000
2018-03-02 02:17:50,0.23,1.99,0.00,20.00,23.30,26.56,14.02,48.27,1012.71,2041.98,2717.11,2600.66,2956.46,600.42,600.32,34.35,0000 0000 0000 0000 000000
2018-03-02 02:22:51,0.25,2.00,0.00,20.00,23.30,26.57,14.05,48.24,1012.71,2041.98,2713.11,2597.79,2953.09,600.19,600.01,34.40,0000 0000 0000 0000 000000
2018-03-02 02:27:52,0.24,2.01,0.00,20.00,23.30,26.57,14.15,48.30,1012.71,2041.98,2709.12,2594.97,2949.67,600.22,600.06,34.46,0000 0000 0000 0000 000000
2018-03-02 02:32:54,0.23,2.02,0.00,20.01,23.30,26.57,14.03,48.31,1012.71,2041.97,2705.33,2592.22,2946.41,600.10,600.02,34.51,0000 0000 0000 0000 000000
2018-03-02 02:37:55,0.23,2.04,0.00,20.00,23.30,26.57,14.06,48.22,1012.71,2041.97,2701.50,2589.42,2943.24,600.06,599.88,34.56,0000 0000 0000 0000 000000
2018-03-02 02:42:57,0.23,2.05,0.00,20.01,23.31,26.55,14.09,48.23,1012.71,2041.97,2697.75,2586.80,2940.16,599.97,599.81,34.61,0000 0000 0000 0000 000000
2018-03-02 02:47:58,0.26,2.06,0.00,20.04,23.32,26.55,14.10,48.32,1012.71,2041.98,2693.67,2583.92,2936.74,600.18,599.78,34.66,0000 0000 0000 0000 000000
2018-03-02 02:52:59,0.27,2.07,0.00,20.04,23.32,26.55,14.12,48.35,1012.66,2041.98,2689.38,2580.80,2933.08,599.97,599.66,34.71,0000 0000 0000 0000 000000
2018-03-02 02:58:01,0.27,2.09,0.00,20.03,23.32,26.56,13.97,48.34,1012.56,2041.97,2685.09,2577.59,2929.31,600.01,599.67,34.76,0000 0000 0000 0000 000000
2018-03-02 03:03:02,0.27,2.10,0.00,20.04,23.32,26.56,14.07,48.36,1012.53,2041.97,2680.78,2574.43,2925.59,600.07,599.70,34.81,0000 0000 0000 0000 000000
2018-03-02 03:08:03,0.28,2.11,0.00,20.03,23.32,26.56,14.12,48.38,1012.51,2041.97,2676.37,2571.25,2921.85,600.28,599.87,34.86,0000 0000 0000 0000 000000
2018-03-02 03:13:04,0.28,2.13,0.00,20.04,23.32,26.57,14.01,48.25,1012.57,2041.96,2671.85,2567.97,2918.00,599.80,599.32,34.91,0000 0000 0000 0000 000000
2018-03-02 03:18:06,0.27,2.15,0.00,20.06,23.32,26.58,14.09,48.33,1012.49,2041.96,2667.47,2564.74,2914.23,600.10,599.66,34.96,0000 0000 0000 0000 000000
2018-03-02 03:23:08,0.28,2.16,0.00,20.06,23.32,26.59,14.03,48.29,1012.36,2041.92,2663.06,2561.52,2910.44,599.87,599.43,35.01,0000 0000 0000 0000 000000
2018-03-02 03:28:09,0.28,2.17,0.00,20.06,23.32,26.58,14.03,48.30,1012.26,2041.94,2658.62,2558.45,2906.60,599.88,599.29,35.06,0000 0000 0000 0000 000000
2018-03-02 03:33:10,0.29,2.19,0.00,20.07,23.32,26.59,13.95,48.24,1012.25,2041.90,2653.97,2555.14,2902.62,599.90,599.32,35.11,0000 0000 0000 0000 000000
2018-03-02 03:38:12,0.31,2.20,0.00,20.08,23.32,26.58,14.09,48.38,1012.24,2041.91,2649.25,2551.73,2898.62,600.08,599.55,35.16,0000 0000 0000 0000 000000
2018-03-02 03:43:13,0.30,2.22,0.00,20.07,23.33,26.59,14.06,48.41,1012.22,2041.92,2644.52,2548.25,2894.58,600.31,599.73,35.21,0000 0000 0000 0000 000000
2018-03-02 03:48:15,0.30,2.24,0.00,20.06,23.33,26.60,13.94,48.28,1012.23,2041.88,2639.72,2544.76,2890.49,599.99,599.39,35.26,0000 0000 0000 0000 000000
2018-03-02 03:53:16,0.29,2.25,0.00,20.08,23.34,26.58,14.05,48.37,1012.23,2041.83,2635.13,2541.40,2886.54,600.23,599.62,35.32,0000 0000 0000 0000 000000
2018-03-02 03:58:17,0.31,2.26,0.00,20.08,23.34,26.57,14.07,48.43,1012.22,2041.75,2630.39,2537.92,2882.49,600.13,599.46,35.37,0000 0000 0000 0000 000000
2018-03-02 04:03:18,0.31,2.28,0.00,20.10,23.34,26.59,13.99,48.39,1012.21,2041.80,2625.48,2534.33,2878.44,600.03,599.22,35.42,0000 0000 0000 0000 000000
2018-03-02 04:08:19,0.33,2.30,0.00,20.12,23.34,26.58,14.02,48.48,1012.21,2041.78,2620.63,2530.64,2874.17,600.17,599.41,35.47,0000 0000 0000 0000 000000
2018-03-02 04:13:21,0.33,2.31,0.00,20.10,23.34,26.58,14.03,48.38,1012.07,2041.71,2615.57,2526.81,2869.75,600.06,599.30,35.52,0000 0000 0000 0000 000000
2018-03-02 04:18:22,0.32,2.33,0.00,20.10,23.34,26.59,13.99,48.63,1012.03,2041.65,2610.50,2522.99,2865.41,600.11,599.27,35.57,0000 0000 0000 0000 000000
2018-03-02 04:23:23,0.31,2.35,0.00,20.10,23.34,26.61,14.01,48.47,1012.14,2041.56,2605.60,2519.35,2861.09,600.11,599.41,35.62,0000 0000 0000 0000 000000
2018-03-02 04:28:24,0.31,2.36,0.00,20.09,23.34,26.61,14.03,48.55,1012.14,2041.50,2600.62,2515.69,2856.82,600.09,599.40,35.67,0000 0000 0000 0000 000000
2018-03-02 04:33:26,0.31,2.38,0.00,20.11,23.34,26.61,13.97,48.58,1012.16,2041.24,2595.62,2511.94,2852.45,599.82,599.09,35.72,0000 0000 0000 0000 000000
2018-03-02 04:38:27,0.33,2.40,0.00,20.10,23.35,26.59,14.04,48.51,1011.96,2041.17,2590.53,2508.18,2848.08,599.92,599.09,35.77,0000 0000 0000 0000 000000
2018-03-02 04:43:28,0.37,2.41,0.00,20.10,23.35,26.59,14.09,48.58,1011.83,2041.35,2585.41,2504.40,2843.67,599.99,599.00,35.82,0000 0000 0000 0000 000000
2018-03-02 04:48:29,0.34,2.43,0.00,20.10,23.35,26.59,13.96,48.47,1011.88,2041.37,2580.22,2500.58,2839.24,599.93,599.13,35.87,0000 0000 0000 0000 000000
2018-03-02 04:53:30,0.31,2.45,0.00,20.09,23.35,26.60,14.04,48.57,1012.11,2041.26,2575.14,2496.81,2834.84,600.08,599.35,35.92,0000 0000 0000 0000 000000
2018-03-02 04:58:32,0.33,2.47,0.00,20.10,23.35,26.59,14.05,48.57,1011.93,2041.24,2570.13,2493.26,2830.55,600.19,599.33,35.97,0000 0000 0000 0000 000000
2018-03-02 05:03:33,0.36,2.48,0.00,20.10,23.35,26.57,14.03,48.59,1011.80,2041.23,2564.95,2489.45,2826.12,600.01,599.06,36.02,0000 0000 0000 0000 000000
2018-03-02 05:08:34,0.35,2.50,0.00,20.11,23.35,26.57,14.02,48.53,1011.80,2041.34,2559.94,2485.65,2821.71,599.83,598.93,36.07,0000 0000 0000 0000 000000
2018-03-02 05:13:35,0.33,2.52,0.00,20.11,23.35,26.57,14.06,48.60,1011.78,2041.27,2555.09,2481.92,2817.38,600.19,599.24,36.12,0000 0000 0000 0000 000000
2018-03-02 05:18:37,0.34,2.54,0.00,20.11,23.35,26.57,14.07,48.59,1011.73,2041.47,2550.32,2478.38,2813.35,600.37,599.44,36.17,0000 0000 0000 0000 000000
2018-03-02 05:23:38,0.34,2.55,0.00,20.11,23.35,26.58,13.98,48.78,1011.72,2041.47,2545.41,2474.73,2809.14,599.97,598.90,36.22,0000 0000 0000 0000 000000
2018-03-02 05:28:39,0.36,2.57,0.00,20.09,23.35,26.57,14.02,48.89,1011.69,2041.58,2540.39,2471.00,2804.79,600.09,599.29,36.28,0000 0000 0000 0000 000000
2018-03-02 05:33:40,0.33,2.59,0.00,20.08,23.35,26.58,14.05,48.95,1011.59,2041.58,2535.29,2467.13,2800.30,600.72,599.71,36.33,0000 0000 0000 0000 000000
2018-03-02 05:38:42,0.44,2.61,0.00,20.07,23.35,26.58,14.05,49.12,1011.49,2041.64,2529.78,2462.75,2795.37,600.10,599.15,36.38,0000 0000 0000 0000 000000
2018-03-02 05:43:43,0.42,2.63,0.00,20.06,23.35,26.58,14.00,49.02,1011.52,2041.69,2523.75,2457.61,2789.70,599.74,598.76,36.43,0000 0000 0000 0000 000000
2018-03-02 05:48:44,0.33,2.65,0.00,20.07,23.34,26.57,14.00,49.07,1011.45,2041.67,2518.96,2453.91,2785.39,599.94,598.94,36.48,0000 0000 0000 0000 000000
2018-03-02 05:53:46,0.33,2.67,0.00,20.08,23.33,26.57,14.06,49.14,1011.46,2041.70,2514.13,2450.18,2781.04,600.05,598.96,36.53,0000 0000 0000 0000 000000
2018-03-02 05:58:47,0.30,2.68,0.00,20.06,23.32,26.57,14.05,49.23,1011.28,2041.41,2509.47,2446.69,2776.92,600.16,599.05,36.58,0000 0000 0000 0000 000000
2018-03-02 06:03:48,0.35,2.70,0.00,20.07,23.32,26.57,14.10,49.23,1011.26,2041.60,2504.76,2443.10,2772.78,600.18,598.93,36.63,0000 0000 0000 0000 000000
2018-03-02 06:08:49,0.35,2.72,0.00,20.06,23.32,26.53,14.06,49.20,1011.26,2041.84,2500.06,2439.51,2768.61,600.37,599.22,36.68,0000 0000 0000 0000 000000
2018-03-02 06:13:51,0.33,2.74,0.00,20.02,23.32,26.54,14.07,49.29,1011.25,2041.89,2495.52,2436.03,2764.59,600.30,599.18,36.73,0000 0000 0000 0000 000000
2018-03-02 06:18:52,0.33,2.75,0.00,20.03,23.31,26.53,14.03,49.29,1011.25,2041.91,2490.93,2432.53,2760.45,599.90,598.82,36.78,0000 0000 0000 0000 000000
2018-03-02 06:23:53,0.34,2.77,0.00,20.01,23.30,26.51,14.13,49.31,1011.25,2041.97,2486.24,2429.07,2756.39,599.88,598.98,36.83,0000 0000 0000 0000 000000
2018-03-02 06:28:55,0.33,2.79,0.00,19.99,23.29,26.52,14.04,49.23,1011.26,2041.96,2481.60,2425.47,2752.35,600.20,599.23,36.88,0000 0000 0000 0000 000000
2018-03-02 06:33:56,0.34,2.81,0.00,19.96,23.29,26.52,14.06,49.27,1011.25,2041.97,2476.84,2421.86,2748.29,600.20,599.24,36.93,0000 0000 0000 0000 000000
2018-03-02 06:38:57,0.34,2.82,0.00,19.94,23.27,26.51,14.13,49.23,1011.25,2041.98,2472.15,2418.31,2744.19,600.56,599.55,36.98,0000 0000 0000 0000 000000
2018-03-02 06:43:58,0.35,2.84,0.00,19.94,23.27,26.50,14.01,49.36,1011.25,2041.98,2467.33,2414.68,2739.94,600.15,599.27,37.03,0000 0000 0000 0000 000000
2018-03-02 06:48:59,0.36,2.86,0.00,19.93,23.26,26.50,14.03,49.30,1011.25,2041.98,2462.38,2410.86,2735.54,599.81,599.04,37.08,0000 0000 0000 0000 000000
2018-03-02 06:54:01,0.34,2.87,0.00,19.90,23.25,26.49,14.05,49.39,1011.25,2041.98,2457.64,2407.26,2731.36,599.39,598.55,37.13,0000 0000 0000 0000 000000
2018-03-02 06:59:02,0.33,2.89,0.00,19.89,23.24,26.47,14.04,49.19,1011.25,2041.99,2453.08,2403.79,2727.25,600.30,599.48,37.18,0000 0000 0000 0000 000000
2018-03-02 07:04:03,0.35,2.91,0.00,19.88,23.23,26.43,14.10,49.21,1011.24,2041.99,2448.33,2400.26,2723.13,600.22,599.41,37.24,0000 0000 0000 0000 000000
2018-03-02 07:09:05,0.34,2.93,0.00,19.86,23.22,26.42,14.01,49.30,1011.22,2041.99,2443.64,2396.66,2718.98,599.53,598.81,37.29,0000 0000 0000 0000 000000
2018-03-02 07:14:06,0.33,2.95,0.00,19.83,23.21,26.43,14.06,49.17,1011.24,2041.99,2439.17,2393.23,2715.01,599.71,599.02,37.34,0000 0000 0000 0000 000000
2018-03-02 07:19:07,0.33,2.96,0.00,19.80,23.19,26.41,14.02,49.21,1011.24,2041.99,2434.69,2389.90,2711.07,599.99,599.33,37.39,0000 0000 0000 0000 000000
2018-03-02 07:24:09,0.34,2.98,0.00,19.80,23.19,26.37,14.00,49.08,1011.25,2041.99,2430.21,2386.36,2707.03,600.13,599.38,37.44,0000 0000 0000 0000 000000
2018-03-02 07:29:10,0.33,3.00,0.00,19.78,23.17,26.38,14.05,48.93,1011.25,2041.99,2425.81,2382.88,2703.18,600.23,599.60,37.49,0000 0000 0000 0000 000000
2018-03-02 07:34:11,0.32,3.01,0.00,19.77,23.17,26.39,14.05,49.05,1011.25,2041.99,2421.40,2379.55,2699.32,600.00,599.42,37.54,0000 0000 0000 0000 000000
2018-03-02 07:39:12,0.32,3.03,0.00,19.73,23.15,26.36,14.06,49.17,1011.24,2041.99,2417.02,2376.26,2695.54,599.93,599.42,37.59,0000 0000 0000 0000 000000
2018-03-02 07:44:14,0.33,3.05,0.00,19.71,23.14,26.33,14.05,49.14,1011.18,2042.01,2412.61,2372.94,2691.71,599.86,599.31,37.64,0000 0000 0000 0000 000000
2018-03-02 07:49:15,0.34,3.06,0.00,19.71,23.12,26.35,14.03,49.04,1011.15,2042.03,2408.02,2369.60,2687.83,599.76,599.23,37.69,0000 0000 0000 0000 000000
2018-03-02 07:54:16,0.32,3.08,0.00,19.67,23.12,26.34,14.07,49.16,1011.15,2042.03,2403.52,2366.31,2683.95,599.79,599.31,37.74,0000 0000 0000 0000 000000
2018-03-02 07:59:18,0.34,3.10,0.00,19.67,23.10,26.31,14.04,49.04,1011.19,2042.04,2399.02,2363.02,2680.08,600.58,599.98,37.79,0000 0000 0000 0000 000000
2018-03-02 08:04:19,0.33,3.11,0.00,19.67,23.09,26.31,14.04,49.22,1011.20,2042.10,2394.56,2359.71,2676.22,599.64,599.36,37.84,0000 0000 0000 0000 000000
2018-03-02 08:09:20,0.34,3.13,0.00,19.66,23.07,26.33,14.09,49.32,1011.04,2042.07,2390.07,2356.31,2672.34,599.99,599.50,37.89,0000 0000 0000 0000 000000
2018-03-02 08:14:21,0.45,3.15,0.00,19.66,23.06,26.29,14.02,49.31,1011.00,2042.19,2385.25,2351.96,2667.40,599.80,599.32,37.94,0000 0000 0000 0000 000000
2018-03-02 08:19:22,0.33,3.17,0.00,19.66,23.04,26.28,14.10,49.44,1010.94,2042.22,2380.71,2348.30,2663.20,600.13,599.61,37.99,0000 0000 0000 0000 000000
2018-03-02 08:24:24,0.37,3.19,0.00,19.65,23.02,26.25,14.10,49.48,1010.96,2042.51,2376.40,2345.03,2659.39,600.38,599.94,38.04,0000 0000 0000 0000 000000
2018-03-02 08:29:25,0.34,3.21,0.00,19.64,23.02,26.24,14.08,49.47,1010.93,2042.83,2372.18,2341.82,2655.71,599.70,599.27,38.09,0000 0000 0000 0000 000000
2018-03-02 08:34:26,0.33,3.22,0.00,19.62,22.99,26.19,13.99,49.49,1011.01,2042.92,2368.00,2338.67,2652.00,599.54,599.15,38.15,0000 0000 0000 0000 000000
2018-03-02 08:39:27,0.33,3.24,0.00,19.59,22.99,26.18,14.12,49.36,1011.09,2042.96,2363.85,2335.46,2648.27,600.01,599.58,38.20,0000 0000 0000 0000 000000
2018-03-02 08:44:29,0.32,3.26,0.00,19.58,22.97,26.17,14.07,49.45,1011.18,2042.97,2359.57,2332.24,2644.57,600.07,599.69,38.25,0000 0000 0000 0000 000000
2018-03-02 08:49:30,0.32,3.27,0.00,19.54,22.96,26.15,14.00,49.51,1011.18,2042.98,2355.33,2329.06,2640.81,599.73,599.63,38.30,0000 0000 0000 0000 000000
2018-03-02 08:54:31,0.32,3.29,0.00,19.52,22.94,26.13,14.10,49.48,1011.20,2042.99,2351.10,2325.85,2637.10,600.35,600.25,38.35,0000 0000 0000 0000 000000
2018-03-02 08:59:32,0.34,3.31,0.00,19.52,22.92,26.13,14.06,49.52,1011.22,2042.99,2346.83,2322.62,2633.41,599.99,599.88,38.40,0000 0000 0000 0000 000000
2018-03-02 09:04:33,0.31,3.32,0.00,19.49,22.92,26.12,14.08,49.60,1011.22,2042.99,2342.73,2319.54,2629.82,600.19,600.19,38.45,0000 0000 0000 0000 000000
2018-03-02 09:09:35,0.32,3.34,0.00,19.47,22.90,26.09,14.07,49.52,1011.24,2042.99,2338.56,2316.48,2626.26,599.88,599.99,38.50,0000 0000 0000 0000 000000
2018-03-02 09:14:36,0.31,3.36,0.00,19.47,22.89,26.09,14.10,49.55,1011.24,2042.99,2334.48,2313.34,2622.76,600.25,600.30,38.55,0000 0000 0000 0000 000000
2018-03-02 09:19:37,0.32,3.37,0.00,19.46,22.87,26.07,14.17,49.64,1011.23,2042.99,2330.45,2310.27,2619.30,600.09,600.12,38.60,0000 0000 0000 0000 000000
2018-03-02 09:24:38,0.31,3.39,0.00,19.46,22.87,26.05,14.12,49.67,1011.23,2043.01,2326.48,2307.29,2615.77,600.23,600.23,38.65,0000 0000 0000 0000 000000
2018-03-02 09:29:40,0.33,3.40,0.00,19.44,22.85,26.04,14.12,49.62,1011.20,2043.01,2322.33,2304.22,2612.16,600.19,599.99,38.70,0000 0000 0000 0000 000000
2018-03-02 09:34:41,0.34,3.42,0.00,19.42,22.83,26.01,14.13,49.64,1011.09,2043.06,2318.18,2301.15,2608.51,599.97,599.94,38.75,0000 0000 0000 0000 000000
2018-03-02 09:39:42,0.33,3.44,0.00,19.38,22.82,26.02,14.07,49.58,1010.94,2043.07,2313.92,2297.84,2604.72,599.70,599.79,38.80,0000 0000 0000 0000 000000
2018-03-02 09:44:43,0.33,3.46,0.00,19.37,22.81,25.99,14.18,49.64,1010.78,2043.09,2309.76,2294.69,2601.03,600.61,600.57,38.85,0000 0000 0000 0000 000000
2018-03-02 09:49:45,0.37,3.47,0.00,19.36,22.79,25.97,14.11,49.64,1010.78,2043.33,2305.60,2291.50,2597.40,600.12,600.06,38.90,0000 0000 0000 0000 000000
2018-03-02 09:54:46,0.32,3.49,0.00,19.35,22.78,25.99,14.10,49.63,1010.76,2043.47,2301.49,2288.40,2593.81,600.24,600.23,38.95,0000 0000 0000 0000 000000
2018-03-02 09:59:47,0.36,3.51,0.00,19.34,22.77,25.95,14.03,49.77,1010.76,2043.75,2297.54,2285.37,2590.26,600.07,600.09,39.00,0000 0000 0000 0000 000000
2018-03-02 10:04:48,0.33,3.53,0.00,19.32,22.75,25.97,14.07,49.75,1010.76,2043.93,2293.66,2282.24,2586.76,599.81,599.89,39.05,0000 0000 0000 0000 000000
2018-03-02 10:09:49,0.31,3.54,0.00,19.31,22.74,25.96,14.11,49.73,1010.76,2043.94,2289.86,2279.20,2583.21,599.97,599.97,39.10,0000 0000 0000 0000 000000
2018-03-02 10:14:51,0.29,3.56,0.00,19.28,22.72,25.95,14.06,49.77,1010.76,2043.97,2286.29,2276.43,2580.04,599.70,599.92,39.16,0000 0000 0000 0000 000000
2018-03-02 10:19:52,0.27,3.57,0.00,19.25,22.71,25.95,14.11,49.72,1010.76,2043.97,2282.84,2273.89,2577.00,600.19,600.40,39.21,0000 0000 0000 0000 000000
2018-03-02 10:24:53,0.28,3.59,0.00,19.23,22.69,25.93,14.18,49.67,1010.77,2043.98,2279.40,2271.26,2573.99,600.29,600.54,39.26,0000 0000 0000 0000 000000
2018-03-02 10:29:54,0.26,3.60,0.00,19.22,22.67,25.92,14.10,49.67,1010.84,2043.98,2276.09,2268.74,2571.06,599.58,599.88,39.31,0000 0000 0000 0000 000000
2018-03-02 10:34:56,0.25,3.62,0.00,19.17,22.65,25.96,14.08,49.61,1011.09,2043.98,2272.89,2266.35,2568.29,599.91,600.48,39.36,0000 0000 0000 0000 000000
2018-03-02 10:39:57,0.26,3.63,0.00,19.16,22.64,25.94,14.15,49.61,1011.15,2043.99,2269.64,2263.93,2565.46,599.88,600.51,39.41,0000 0000 0000 0000 000000
2018-03-02 10:44:58,0.27,3.64,0.00,19.14,22.62,25.92,14.13,49.58,1011.18,2043.99,2266.33,2261.47,2562.63,600.15,600.74,39.46,0000 0000 0000 0000 000000
2018-03-02 10:49:59,0.27,3.65,0.00,19.15,22.60,25.92,14.10,49.54,1011.10,2043.99,2262.97,2258.90,2559.74,600.40,601.20,39.51,0000 0000 0000 0000 000000
2018-03-02 10:55:00,0.26,3.67,0.00,19.13,22.59,25.90,14.12,49.63,1011.19,2043.99,2259.61,2256.35,2556.96,600.18,600.88,39.56,0000 0000 0000 0000 000000
2018-03-02 11:00:02,0.28,3.68,0.00,19.12,22.57,25.86,14.00,49.60,1011.22,2044.00,2256.17,2253.83,2554.02,599.55,600.30,39.61,0000 0000 0000 0000 000000
2018-03-02 11:05:03,0.28,3.70,0.00,19.13,22.55,25.88,14.07,49.62,1011.21,2044.00,2252.73,2251.21,2551.00,599.85,600.56,39.66,0000 0000 0000 0000 000000
2018-03-02 11:10:04,0.28,3.71,0.00,19.13,22.53,25.83,14.14,49.60,1011.18,2044.02,2249.25,2248.61,2548.01,599.96,600.78,39.71,0000 0000 0000 0000 000000
2018-03-02 11:15:06,0.28,3.73,0.00,19.13,22.52,25.81,14.04,49.65,1011.19,2044.03,2245.86,2246.07,2545.02,599.69,600.41,39.76,0000 0000 0000 0000 000000
2018-03-02 11:20:07,0.28,3.74,0.00,19.12,22.50,25.78,14.14,49.55,1011.22,2044.04,2242.46,2243.51,2542.04,600.07,600.80,39.81,0000 0000 0000 0000 000000
2018-03-02 11:25:08,0.28,3.76,0.00,19.09,22.49,25.80,14.16,49.67,1011.13,2044.10,2239.19,2240.96,2539.10,600.02,600.76,39.86,0000 0000 0000 0000 000000
2018-03-02 11:30:09,0.27,3.77,0.00,19.09,22.47,25.78,14.20,49.88,1011.11,2044.19,2235.95,2238.56,2536.21,600.10,600.73,39.91,0000 0000 0000 0000 000000
2018-03-02 11:35:10,0.30,3.78,0.00,19.09,22.45,25.75,14.06,49.78,1011.07,2044.32,2232.56,2236.09,2533.26,599.79,600.50,39.96,0000 0000 0000 0000 000000
2018-03-02 11:40:12,0.29,3.80,0.00,19.06,22.44,25.70,14.06,49.71,1010.95,2044.57,2229.21,2233.57,2530.34,599.81,600.58,40.01,0000 0000 0000 0000 000000
2018-03-02 11:45:13,0.29,3.82,0.00,19.05,22.42,25.68,14.14,49.78,1010.83,2044.77,2226.00,2231.12,2527.49,599.97,600.74,40.06,0000 0000 0000 0000 000000
2018-03-02 11:50:14,0.28,3.83,0.00,19.05,22.41,25.68,14.09,49.73,1010.78,2044.93,2222.86,2228.69,2524.66,599.90,600.53,40.12,0000 0000 0000 0000 000000
2018-03-02 11:55:15,0.27,3.84,0.00,19.05,22.39,25.65,14.17,49.90,1010.78,2044.93,2219.59,2226.28,2521.81,600.34,600.97,40.17,0000 0000 0000 0000 000000
2018-03-02 12:00:16,0.27,3.86,0.00,19.03,22.38,25.67,14.13,49.89,1010.85,2044.96,2216.42,2223.89,2519.02,599.88,600.58,40.22,0000 0000 0000 0000 000000
2018-03-02 12:05:18,0.26,3.87,0.00,19.02,22.37,25.66,14.06,49.92,1010.78,2044.99,2213.34,2221.54,2516.31,599.86,600.69,40.27,0000 0000 0000 0000 000000
2018-03-02 12:10:19,0.27,3.88,0.00,19.01,22.34,25.62,14.16,49.98,1010.78,2044.98,2210.18,2219.16,2513.52,600.00,600.66,40.32,0000 0000 0000 0000 000000
2018-03-02 12:15:20,0.25,3.90,0.00,19.01,22.33,25.65,14.13,49.91,1010.76,2044.99,2207.08,2216.77,2510.79,599.78,600.53,40.37,0000 0000 0000 0000 000000
2018-03-02 12:20:21,0.26,3.91,0.00,18.99,22.32,25.61,14.08,49.97,1010.76,2044.99,2204.00,2214.48,2508.09,600.11,600.79,40.42,0000 0000 0000 0000 000000
2018-03-02 12:25:23,0.28,3.92,0.00,18.97,22.30,25.61,14.14,49.98,1010.75,2044.99,2200.76,2211.95,2505.20,600.11,600.88,40.47,0000 0000 0000 0000 000000
2018-03-02 12:30:24,0.28,3.94,0.00,18.96,22.28,25.57,14.09,50.03,1010.75,2045.00,2197.47,2209.44,2502.33,600.00,600.74,40.52,0000 0000 0000 0000 000000
2018-03-02 12:35:26,0.28,3.95,0.00,18.92,22.27,25.53,14.07,50.06,1010.71,2045.00,2194.08,2206.91,2499.35,599.69,600.57,40.57,0000 0000 0000 0000 000000
2018-03-02 12:40:27,0.28,3.97,0.00,18.91,22.24,25.57,14.11,50.10,1010.48,2045.03,2190.79,2204.38,2496.50,600.11,600.84,40.62,0000 0000 0000 0000 000000
2018-03-02 12:45:28,0.29,3.98,0.00,18.90,22.23,25.53,14.03,50.15,1010.31,2045.05,2187.35,2201.78,2493.61,599.63,600.39,40.67,0000 0000 0000 0000 000000
2018-03-02 12:50:29,0.30,4.00,0.00,18.88,22.22,25.50,14.11,50.24,1010.28,2045.09,2184.00,2199.23,2490.64,600.00,600.73,40.72,0000 0000 0000 0000 000000
2018-03-02 12:55:30,0.30,4.01,0.00,18.86,22.19,25.49,14.16,50.27,1010.27,2045.20,2180.74,2196.71,2487.76,600.28,600.99,40.77,0000 0000 0000 0000 000000